Regional Weather Roundup
Issued by NWS Portland, ME

Home | Current Version | Previous Version | Text Only | Print | Product List | Glossary On
Versions: 1 2 3 4 5 6 7 8 9 10 11 12 13 14 15 16 17 18 19 20 21 22 23 24 25 26 27 28 29 30 31 32 33 34 35 36 37 38 39 40 41 42 43 44 45 46 47 48 49 50
000
ASUS41 KGYX 260710
RWRGYX
WEATHER ROUNDUP FOR MAINE AND NEW HAMPSHIRE
NATIONAL WEATHER SERVICE GRAY ME
300 AM EDT SUN OCT 26 2014

MEZ002-005-006-010-012-015-018-020-021-024-026-027-029-260800-
MAINE

CITY           SKY/WX    TMP DP  RH WIND       PRES   REMARKS
PORTLAND       CLOUDY    51  46  83 N3        29.41S
SANFORD        CLOUDY    48  43  81 S5        29.42F
BAR HARBOR     CLOUDY    46  46 100 CALM      29.40F
WISCASSET      CLOUDY    47  45  93 CALM      29.42F
ROCKLAND       CLOUDY    50  46  87 CALM      29.40S
FRYEBURG       PTCLDY    45  41  86 CALM      29.41S
LEWISTONAUBURN CLOUDY    43  41  93 SE5       29.39F VSB 1/2
AUGUSTA        MOCLDY    46  45  96 S3        29.39F FOG
WATERVILLE     CLOUDY    46  43  87 CALM      29.36F
BANGOR         LGT RAIN  48  47  96 CALM      29.41F
GREENVILLE       N/A     41  40  96 VRB3      29.35F
MILLINOCKET    LGT RAIN  43  41  93 CALM      29.41F
HOULTON        LGT RAIN  43  40  89 SE7       29.41F
PRESQUE ISLE   CLOUDY    43  37  81 SE9       29.40F
FRENCHVILLE    LGT RAIN  39  38  96 E7        29.39  VSB 3/4
CARIBOU        LGT RAIN  42  40  92 SE9       29.41F
$$

NHZ002-005-008-009-011-012-014-260800-
NEW HAMPSHIRE

CITY           SKY/WX    TMP DP  RH WIND       PRES   REMARKS
PORTSMOUTH     CLOUDY    52  44  76 SW6       29.42F
ROCHESTER      CLOUDY    52  44  74 CALM      29.42F
NASHUA         CLOUDY    51  46  83 CALM      29.46F
MANCHESTER     CLOUDY    53  43  68 SW5       29.43F
CONCORD        MOCLDY    47  43  86 SW5       29.44S
LACONIA        PTCLDY    48  43  81 SW5       29.41S
PLYMOUTH       FOG       41  41 100 CALM      29.41F VSB 3/4
BERLIN         FOG       40  40 100 CALM      29.38F VSB 1/4
WHITEFIELD     MOCLDY    44  42  93 SW5       29.40F
JAFFREY        MOCLDY    43  42  97 S6        29.47F
LEBANON        CLEAR     39  37  92 CALM      29.43F FOG
MT WASHINGTON  FOG       30  30 100 NW52G58     N/A  VSB 0   WCI  12
$$

VTZ005-007-008-260800-
VERMONT

CITY           SKY/WX    TMP DP  RH WIND       PRES   REMARKS
ST JOHNSBURY     N/A     45  45 100 MISG      29.39F
MONTPELIER     PTCLDY    44  40  85 SE5       29.45S
BURLINGTON     CLOUDY    49  44  83 SW6       29.44S
$$

MAZ007-012-024-CTZ003-RIZ002-NYZ038-NYZ072-260800-
SOUTHERN NEW ENGLAND AND NY

CITY           SKY/WX    TMP DP  RH WIND       PRES   REMARKS
BOSTON         MOCLDY    56  44  64 W9        29.46F
WORCESTER      PTCLDY    48  42  80 SW12      29.47F
NANTUCKET      PTCLDY    61  53  75 W16       29.49F
PROVIDENCE     MOCLDY    56  45  66 W8        29.49F
HARTFORD       MOCLDY    53  43  68 CALM      29.49F
ALBANY         CLOUDY    49  44  83 SW9       29.51F
NEW YORK CITY  MOCLDY    59  49  69 W6        29.55S
$$

ANZ081-ANZ082-ANZ150-NHZ014-MEZ023>029-260800-
COASTAL MARINE OBSERVATIONS

STATION/POSITION TIME  TEMP    WIND        PRES    WAVE
                       AIR SEA DIR/SP/G            HT/PER
                 (UTC) (F)     (DEG/KT/KT) (MB)    (FT/S)
MOUNT DESERT ROC 0700   56                  995.5
MATINICUS ROCK   0700          270/  6/  6  995.2F
PORTLAND WX BUOY 0650   54 54  260/ 14/ 16  995.1F   2/ 4
WELLS            0600   52 51  260/  4/  5  995.6F
ISLE OF SHOALS   0700   55     250/ 14/ 14  995.6F
JEFFREYS LEDGE   0621      55                N/A     3/ 4
CASHES LEDGE BUO 0650   56 55  220/ 16/ 17  995.1F   3/ 4
$$

.............KEY..............
   WCI - WIND CHILL
   TC  - TEMPERATURE IN CELSIUS
   VSB - VISIBILITY IN MILES
   HX  - HEAT INDEX
   FAIR- INDICATES FEW OR NO CLOUDS BELOW 12,000 FT, WITH NO
         SIGNIFICANT WEATHER AND/OR OBSTRUCTIONS TO VISIBILITY.





USA.gov is the U.S. government's official web portal to all federal, state and local government web resources and services.